Overview Statistics Trail Chart Weather Telemetry Raw packets
 

This is the latest recevied weather packets stored in our database for station/object 4S6DRJ-13. If no packets are shown the sender has not sent any weather packets the latest 10 day(s).

<< 36 37 38 39 40 41 42 >>
Time Temp. Humidity Pressure Rain* Wind** Luminosity Snow
1788392648 27.78° C 86% 1009 hPa 0 mm 0.45 m/s, 239° 0 W/m² -
1788392587 27.78° C 86% 1009.1 hPa 0 mm 0 m/s 0 W/m² -
1788392466 27.78° C 86% 1009.1 hPa 0 mm 0 m/s 0 W/m² -
1788392405 27.78° C 86% 1009.2 hPa 0 mm 0 m/s 0 W/m² -
1788392343 27.78° C 86% 1009 hPa 0 mm 0.45 m/s, 227° 0 W/m² -
1788392282 27.78° C 86% 1009 hPa 0 mm 0.45 m/s, 189° 0 W/m² -
1788392221 27.22° C 86% 1008.8 hPa 0 mm 0 m/s 0 W/m² -
1788392160 27.22° C 86% 1009 hPa 0 mm 0.45 m/s, 267° 0 W/m² -
1788392099 27.22° C 85% 1009.2 hPa 0 mm 0 m/s 0 W/m² -
1788392038 27.22° C 85% 1008.9 hPa 0 mm 0.45 m/s, 234° 0 W/m² -
1788391977 27.22° C 85% 1008.6 hPa 0 mm 0.45 m/s, 264° 0 W/m² -
1788391916 27.22° C 85% 1008.8 hPa 0 mm 0.45 m/s, 243° 0 W/m² -
1788391854 27.78° C 85% 1008.8 hPa 0 mm 0 m/s 0 W/m² -
1788391793 27.78° C 85% 1008.8 hPa 0 mm 0 m/s 0 W/m² -
1788391733 27.78° C 85% 1008.8 hPa 0 mm 0.45 m/s, 182° 0 W/m² -
1788391672 27.78° C 85% 1008.8 hPa 0 mm 0 m/s 0 W/m² -
1788391611 27.78° C 85% 1008.8 hPa 0 mm 0.45 m/s, 230° 0 W/m² -
1788391550 27.78° C 85% 1008.9 hPa 0 mm 0.89 m/s, 176° 0 W/m² -
1788391489 27.78° C 85% 1008.9 hPa 0 mm 0.45 m/s, 221° 0 W/m² -
1788391428 27.78° C 85% 1008.7 hPa 0 mm 0.45 m/s, 192° 0 W/m² -
1788391367 27.78° C 85% 1008.9 hPa 0 mm 0.89 m/s, 221° 0 W/m² -
1788391306 27.78° C 85% 1008.8 hPa 0 mm 0 m/s 0 W/m² -
1788391245 27.78° C 85% 1008.8 hPa 0 mm 0 m/s 0 W/m² -
1788391184 27.78° C 85% 1008.8 hPa 0 mm 0.89 m/s, 234° 0 W/m² -
1788391123 27.78° C 85% 1008.8 hPa 0 mm 0 m/s 0 W/m² -

* Rain latest hour (hover to see other rain measurements)
** Current wind speed in m/s (hover to see current wind gust speed)